User: anonymous   Login
Location: Unspecified
(0.0000°N, 0.0000°E)
Time: 08:31:35
(UTC+00:00)
Language:

FALCONSAT 3 - Orbit

View from above orbital plane
View from above orbital plane
View from above satellite
View from above satellite

Ground track
Ground track

The orbit data is extracted from the following two-line orbital elements,

1 30776U 07006E   22272.77419876  .00067514  00000-0  75269-3 0  9995
2 30776  35.4293 293.1750 0002448 217.9359 142.1203 15.61643038865854
Epoch (UTC): 29 September 2022 18:34:50
Eccentricity: 0.0002448
inclination: 35.4293°
perigee height: 381 km
apogee height: 384 km
right ascension of ascending node: 293.1750°
argument of perigee: 217.9359°
revolutions per day: 15.61643038
mean anomaly at epoch: 142.1203°
orbit number at epoch: 86585

The dashed part of the orbit path shows where the satellite is in the earth's shadow,  

DLR